Volver al catálogo

COSMOS 1579 COOLANT

LostLEO
NORAD 26516·DEBRIS·🇷🇺 Russia

Lanzado Jun 29, 1984 desde Baikonur Cosmodrome

Loading…

Próximos Pases (próximas 24 horas)

TLE

ObsoletoSource: Space-Track

Época: Aug 31, 2022, 14:35 UTC

1 26516U 84069H   22243.60794848  .00000002  00000-0  72723-4 0  9993
2 26516  65.0466 239.3857 0032573 141.1146 219.2270 13.91403186140323

Sigue COSMOS 1579 COOLANT en tiempo real con AllMySat

Download on the App Store